Weather History for KRQB - September, 2012

Change the Weather History Date:

Friday, September 14, 2012

  Actual Average Record
Temperature  
Mean Temperature 58 °F -  
Max Temperature 73 °F 71 °F 83 °F (1971)
Min Temperature 43 °F 46 °F 30 °F (1975)
Degree Days  
Heating Degree Days 7    
Growing Degree Days 8 (Base 50)    
Moisture  
Dew Point 42 °F    
Average Humidity 65    
Maximum Humidity 97    
Minimum Humidity 21    
Precipitation  
Precipitation 0.00 in - - ()
Sea Level Pressure  
Sea Level Pressure 30.27 in    
Wind  
Wind Speed 4 mph (NW)    
Max Wind Speed 22 mph    
Max Gust Speed 28 mph    
Visibility 8 miles    
Events Fog    
Averages and records for this station are not official NWS values.
T = Trace of Precipitation, MM = Missing Value Source: NWS Daily Summary

Daily Weather History Graph

Daily Weather History Graph

Search for Another Location

Airport or City:

Trip Planner

Search our weather history database for the weather conditions in past years. The results will help you decide how hot, cold, wet, or windy it might be!

Date:

Astronomy

Sep. 14, 2012 Rise Set
Actual Time 7:20 AM EDT 7:53 PM EDT
Civil Twilight 6:51 AM EDT 8:21 PM EDT
Nautical Twilight 6:17 AM EDT 8:56 PM EDT
Astronomical Twilight 5:42 AM EDT 9:31 PM EDT
Moon 5:42 AM EDT (9/14) 6:49 PM EDT (9/14)
Length of Visible Light 13h 30m
Length of Day
12h 32m
Waning Crescent, 3% of the Moon is Illuminated
Sep 14
Waning Crescent
Sep 15
New
Sep 22
First Quarter
Sep 29
Full
Oct 8
Last Quarter

Hourly Weather History & Observations

Time (EDT) Temp. Dew Point Humidity Pressure Visibility Wind Dir Wind Speed Gust Speed Precip Events Conditions
12:14 AM 54.5 °F 52.2 °F 92% 30.30 in 10.0 mi Calm Calm - N/A   Overcast
12:35 AM 54.1 °F 52.2 °F 93% 30.30 in 10.0 mi Calm Calm - N/A   Overcast
12:55 AM 54.1 °F 52.2 °F 93% 30.29 in 10.0 mi Calm Calm - N/A   Overcast
1:14 AM 54.0 °F 52.0 °F 93% 30.29 in 10.0 mi Calm Calm - N/A   Overcast
1:35 AM 53.8 °F 51.8 °F 93% 30.29 in 10.0 mi Calm Calm - N/A   Mostly Cloudy
1:55 AM 53.1 °F 51.3 °F 94% 30.29 in 7.0 mi Calm Calm - N/A   Scattered Clouds
2:15 AM 52.7 °F 50.9 °F 94% 30.29 in 10.0 mi Calm Calm - N/A   Clear
2:35 AM 51.8 °F 50.2 °F 94% 30.29 in 1.0 mi Calm Calm - N/A   Overcast
2:55 AM 50.9 °F 49.1 °F 94% 30.28 in 3.0 mi Calm Calm - N/A   Scattered Clouds
3:15 AM 50.5 °F 49.1 °F 95% 30.28 in 4.0 mi NNW 3.5 mph - N/A   Clear
3:35 AM 49.1 °F 47.5 °F 94% 30.28 in 0.2 mi Calm Calm - N/A Fog Fog
3:55 AM 48.4 °F 46.9 °F 95% 30.27 in 0.5 mi Calm Calm - N/A Fog Fog
4:15 AM 48.0 °F 46.8 °F 95% 30.27 in 0.2 mi Calm Calm - N/A Fog Fog
4:35 AM 47.3 °F 46.0 °F 95% 30.27 in 0.5 mi Calm Calm - N/A Fog Fog
4:55 AM 46.6 °F 45.5 °F 96% 30.27 in 0.8 mi Calm Calm - N/A   Overcast
5:15 AM 46.4 °F 45.1 °F 95% 30.26 in 0.2 mi Calm Calm - N/A Fog Fog
5:35 AM 45.9 °F 44.8 °F 96% 30.27 in 0.2 mi Calm Calm - N/A Fog Fog
5:54 AM 45.5 °F 44.2 °F 95% 30.27 in - Calm Calm - N/A   Overcast
6:15 AM 45.0 °F 43.9 °F 96% 30.28 in 0.5 mi Calm Calm - N/A Fog Fog
6:35 AM 44.2 °F 43.2 °F 96% 30.28 in 0.2 mi Calm Calm - N/A Fog Fog
6:54 AM 44.6 °F 43.3 °F 95% 30.28 in 0.2 mi Calm Calm - N/A Fog Fog
7:15 AM 43.3 °F 42.4 °F 97% 30.28 in 0.2 mi Calm Calm - N/A Fog Fog
7:35 AM 43.5 °F 42.6 °F 97% 30.28 in 0.2 mi Calm Calm - N/A Fog Fog
7:54 AM 43.5 °F 42.6 °F 97% 30.29 in 0.2 mi Calm Calm - N/A Fog Fog
8:15 AM 43.7 °F 42.8 °F 97% 30.29 in 0.2 mi Calm Calm - N/A Fog Fog
8:35 AM 44.8 °F 43.7 °F 96% 30.29 in 0.2 mi Calm Calm - N/A Fog Fog
8:54 AM 46.6 °F 45.5 °F 96% 30.30 in 1.5 mi Calm Calm - N/A   Mostly Cloudy
9:15 AM 50.2 °F 48.9 °F 95% 30.29 in 10.0 mi Calm Calm - N/A   Clear
9:34 AM 53.1 °F 52.0 °F 96% 30.29 in 10.0 mi Calm Calm - N/A   Clear
9:55 AM 56.8 °F 52.9 °F 87% 30.29 in 10.0 mi Calm Calm - N/A   Clear
10:15 AM 60.3 °F 51.3 °F 72% 30.29 in 10.0 mi WNW 13.8 mph - N/A   Clear
10:34 AM 61.7 °F 51.1 °F 68% 30.28 in 10.0 mi NW 4.6 mph - N/A   Clear
10:55 AM 63.0 °F 47.1 °F 56% 30.28 in 10.0 mi NW 6.9 mph - N/A   Clear
11:15 AM 65.5 °F 46.0 °F 49% 30.28 in 10.0 mi WNW 6.9 mph - N/A   Clear
11:34 AM 65.8 °F 43.9 °F 45% 30.28 in 10.0 mi WNW 10.4 mph 16.1 mph N/A   Clear
11:55 AM 67.1 °F 44.8 °F 45% 30.27 in 10.0 mi WNW 10.4 mph - N/A   Clear
12:15 PM 67.3 °F 43.2 °F 42% 30.27 in 10.0 mi NW 8.1 mph 18.4 mph N/A   Clear
12:35 PM 68.4 °F 38.7 °F 34% 30.27 in 10.0 mi WNW 10.4 mph 16.1 mph N/A   Scattered Clouds
12:55 PM 68.4 °F 36.3 °F 31% 30.27 in 10.0 mi NNW 10.4 mph 17.3 mph N/A   Clear
1:15 PM 70.0 °F 37.0 °F 30% 30.27 in 10.0 mi West 9.2 mph 17.3 mph N/A   Clear
1:35 PM 69.8 °F 37.8 °F 31% 30.26 in 10.0 mi NW 10.4 mph 20.7 mph N/A   Clear
1:55 PM 70.7 °F 37.0 °F 29% 30.25 in 10.0 mi NW 15.0 mph 20.7 mph N/A   Scattered Clouds
2:15 PM 71.2 °F 36.5 °F 28% 30.25 in 10.0 mi WNW 15.0 mph 20.7 mph N/A   Mostly Cloudy
2:34 PM 70.2 °F 37.9 °F 31% 30.24 in 10.0 mi NNW 10.4 mph 20.7 mph N/A   Overcast
2:55 PM 72.7 °F 32.7 °F 23% 30.24 in 10.0 mi WNW 17.3 mph 26.5 mph N/A   Mostly Cloudy
3:15 PM 73.4 °F 31.6 °F 22% 30.23 in 10.0 mi West 17.3 mph 27.6 mph N/A   Mostly Cloudy
3:34 PM 73.2 °F 30.4 °F 21% 30.23 in 10.0 mi WNW 21.9 mph - N/A   Mostly Cloudy
3:55 PM 72.7 °F 32.0 °F 22% 30.23 in 10.0 mi West 13.8 mph 26.5 mph N/A   Mostly Cloudy
4:15 PM 73.2 °F 32.9 °F 23% 30.23 in 10.0 mi NNW 13.8 mph 21.9 mph N/A   Mostly Cloudy
4:34 PM 70.9 °F 32.4 °F 24% 30.24 in 10.0 mi NW 17.3 mph 26.5 mph N/A   Scattered Clouds
4:55 PM 71.6 °F 32.0 °F 23% 30.24 in 10.0 mi WNW 15.0 mph 23.0 mph N/A   Clear
5:15 PM 71.8 °F 32.2 °F 23% 30.25 in 10.0 mi WNW 13.8 mph 21.9 mph N/A   Scattered Clouds
5:35 PM 71.6 °F 33.1 °F 24% 30.25 in 10.0 mi NW 12.7 mph 26.5 mph N/A   Scattered Clouds
5:55 PM 70.2 °F 32.9 °F 25% 30.25 in 10.0 mi NNW 13.8 mph 24.2 mph N/A   Scattered Clouds
6:15 PM 69.3 °F 32.4 °F 26% 30.26 in 10.0 mi NNW 12.7 mph 20.7 mph N/A   Clear
6:35 PM 68.2 °F 32.0 °F 26% 30.26 in 10.0 mi NW 10.4 mph 21.9 mph N/A   Clear
6:55 PM 67.3 °F 32.2 °F 27% 30.27 in 10.0 mi NW 8.1 mph - N/A   Clear
7:15 PM 66.2 °F 32.7 °F 29% 30.27 in 10.0 mi NW 9.2 mph 17.3 mph N/A   Clear
7:35 PM 64.4 °F 34.0 °F 32% 30.27 in 10.0 mi NNW 5.8 mph - N/A   Clear
7:55 PM 61.5 °F 36.7 °F 40% 30.27 in 10.0 mi NW 3.5 mph - N/A   Clear
8:14 PM 57.6 °F 39.2 °F 50% 30.27 in 10.0 mi West 12.7 mph - N/A   Clear
8:35 PM 55.4 °F 39.9 °F 56% 30.28 in 10.0 mi West 9.2 mph - N/A   Clear
8:55 PM 53.2 °F 40.8 °F 63% 30.28 in 10.0 mi West 5.8 mph - N/A   Clear
9:14 PM 52.7 °F 40.3 °F 63% 30.28 in 10.0 mi West 5.8 mph - N/A   Clear
9:35 PM 53.2 °F 39.4 °F 59% 30.29 in 10.0 mi WNW 9.2 mph - N/A   Clear
9:55 PM 51.4 °F 39.9 °F 65% 30.29 in 10.0 mi Calm Calm - N/A   Clear
10:14 PM 50.4 °F 40.6 °F 69% 30.28 in 10.0 mi WNW 6.9 mph - N/A   Clear
10:35 PM 49.1 °F 40.3 °F 72% 30.29 in 10.0 mi Calm Calm - N/A   Clear
10:55 PM 47.1 °F 41.0 °F 79% 30.29 in 10.0 mi Calm Calm - N/A   Clear
11:15 PM 46.6 °F 40.8 °F 80% 30.30 in 10.0 mi Calm Calm - N/A   Clear
11:35 PM 46.2 °F 41.2 °F 83% 30.30 in 10.0 mi Calm Calm - N/A   Clear
11:55 PM 44.8 °F 41.0 °F 87% 30.30 in 10.0 mi Calm Calm - N/A   Clear